Regional Weather Roundup
Issued by NWS

Home | Current Version | Previous Version | Graphics & Text | Print | Product List | Glossary On
Versions: 1 2 3 4 5 6 7 8 9 10 11 12 13 14 15 16 17 18 19 20 21 22 23 24 25 26 27 28 29 30 31 32 33 34 35 36 37 38 39 40 41 42 43 44 45 46 47 48 49 50
000
ASUS43 KMKX 251221
RWRWI

WISCONSIN REGIONAL WEATHER ROUNDUP
NATIONAL WEATHER SERVICE MILWAUKEE/SULLIVAN WI
700 AM CDT SAT MAR 25 2017

NOTE: "FAIR" INDICATES FEW OR NO CLOUDS BELOW 12,000 FEET WITH NO
SIGNIFICANT WEATHER AND/OR OBSTRUCTIONS TO VISIBILITY.

WIZ001-002-006>008-014>016-023>028-251300-
NORTHWEST WISCONSIN

CITY           SKY/WX    TMP DP  RH WIND       PRES   REMARKS
SUPERIOR ARPT  CLOUDY    33  30  88 E13       30.28R WCI  24
6HR MIN TEMP:  33; 6HR MAX TEMP:  35;

ASHLAND        CLOUDY    33  29  85 E12       30.28S WCI  24
6HR MIN TEMP:  33; 6HR MAX TEMP:  34;

HAYWARD        CLOUDY    35  29  78 NE6       30.23R WCI  30
6HR MIN TEMP:  35; 6HR MAX TEMP:  36;

SIREN          CLOUDY    34  30  86 CALM      30.23R
6HR MIN TEMP:  34; 6HR MAX TEMP:  36;

CUMBERLAND     CLOUDY    34  30  86 E13       30.19F WCI  25
RICE LAKE      CLOUDY    35  31  83 CALM      30.21S
6HR MIN TEMP:  34; 6HR MAX TEMP:  36;

CHETEK         CLOUDY    35  31  85 E7        30.19F WCI  29
6HR MIN TEMP:  35; 6HR MAX TEMP:  36;

LADYSMITH      CLOUDY    35  31  85 E7        30.23R WCI  29
6HR MIN TEMP:  35; 6HR MAX TEMP:  36;

EAU CLAIRE     CLOUDY    36  31  82 E15       30.17F WCI  27
6HR MIN TEMP:  36; 6HR MAX TEMP:  38;

MENOMONIE      CLOUDY    37  32  84 NE12      30.18F WCI  29
6HR MIN TEMP:  37; 6HR MAX TEMP:  38;

NEW RICHMOND   CLOUDY    35  30  82 NE9       30.18S WCI  28
6HR MIN TEMP:  35; 6HR MAX TEMP:  36;

OSCEOLA        CLOUDY    37  31  80 NE7       30.21F WCI  31
6HR MIN TEMP:  36; 6HR MAX TEMP:  37;

$$

WIZ003>005-009-010-017-018-251300-
NORTH CENTRAL WISCONSIN

CITY           SKY/WX    TMP DP  RH WIND       PRES   REMARKS
MANITOWISH WTR CLOUDY    31  31 100 E7        30.24R WCI  24
6HR MIN TEMP:  31; 6HR MAX TEMP:  32;

ARBOR VITAE    CLOUDY    34  32  93 E6        30.23R FOG     WCI  29
6HR MIN TEMP:  34; 6HR MAX TEMP:  34;

WOODRUFF       CLOUDY    34  32  93 E6        30.23R FOG     WCI  29
6HR MIN TEMP:  34; 6HR MAX TEMP:  34;

RHINELANDER    CLOUDY    34  30  85 E12       30.23R WCI  25
6HR MIN TEMP:  33; 6HR MAX TEMP:  34;

EAGLE RIVER    CLOUDY    32  31  98 E7        30.24R WCI  26
6HR MIN TEMP:  32; 6HR MAX TEMP:  33;

LAND O LAKES   CLOUDY    32  32  99 E5        30.27R WCI  27
6HR MIN TEMP:  32; 6HR MAX TEMP:  32;

PHILLIPS       CLOUDY    32  31  94 E8        30.21F WCI  25
6HR MIN TEMP:  32; 6HR MAX TEMP:  33;

TOMAHAWK       CLOUDY    32  28  86 E7        30.23R WCI  26
6HR MIN TEMP:  32; 6HR MAX TEMP:  33;

MEDFORD        CLOUDY    32  30  91 E15G22    30.18F WCI  22
6HR MIN TEMP:  32; 6HR MAX TEMP:  33;

MERRILL        CLOUDY    33  31  90 E7        30.22S WCI  27
6HR MIN TEMP:  33; 6HR MAX TEMP:  34;

$$

WIZ029-030-035-036-043>047-251300-
CENTRAL WISCONSIN

CITY           SKY/WX    TMP DP  RH WIND       PRES   REMARKS
WAUSAU         CLOUDY    34  30  85 NE14      30.19S WCI  25
6HR MIN TEMP:  33; 6HR MAX TEMP:  34;

MOSINEE        CLOUDY    34  32  93 NE14G20   30.19S WCI  24
MARSHFIELD     CLOUDY    34  30  85 NE15G23   30.16S WCI  24
6HR MIN TEMP:  33; 6HR MAX TEMP:  35;

STEVENS POINT  CLOUDY    32  31  95 NE13G21   30.18S WCI  23
6HR MIN TEMP:  32; 6HR MAX TEMP:  33;

WAUPACA        CLOUDY    37  33  87 NE7       30.20R WCI  31
6HR MIN TEMP:  36; 6HR MAX TEMP:  37;

WAUTOMA        CLOUDY    35  33  92 NE15      30.16R WCI  25
6HR MIN TEMP:  34; 6HR MAX TEMP:  36;

WISC RAPIDS    CLOUDY    35  32  88 E14G21    30.17S WCI  26
6HR MIN TEMP:  34; 6HR MAX TEMP:  36;

CAMP DOUGLAS   CLOUDY    35  33  92 NE8       30.13F WCI  28
6HR MIN TEMP:  35; 6HR MAX TEMP:  37; 6HR PCP: TRACE;

$$

WIZ011>013-019>022-031-037>040-048>050-251300-
NORTHEAST WISCONSIN

CITY           SKY/WX    TMP DP  RH WIND       PRES   REMARKS
ANTIGO         CLOUDY    32  30  93 E10       30.21F WCI  24
6HR MIN TEMP:  32; 6HR MAX TEMP:  32;

SHAWANO        CLOUDY    36  33  87 NE9       30.22R WCI  29
6HR MIN TEMP:  36; 6HR MAX TEMP:  37;

OCONTO         CLOUDY    34  32  92 NE12      30.25R WCI  25
6HR MIN TEMP:  34; 6HR MAX TEMP:  35;

STURGEON BAY   CLOUDY    36  32  87 NE14G20   30.24R WCI  27
6HR MIN TEMP:  34; 6HR MAX TEMP:  35;

GREEN BAY      CLOUDY    35  35 100 NE16      30.21R WCI  25
6HR MIN TEMP:  35; 6HR MAX TEMP:  35; 6HR PCP: TRACE;

MANITOWOC      CLOUDY    37  34  89 NE12      30.19R WCI  29
6HR MIN TEMP:  35; 6HR MAX TEMP:  37; 6HR PCP:  0.02;

APPLETON       CLOUDY    34  34 100 NE15G21   30.16R WCI  24
CLINTONVILLE   CLOUDY    34  32  93 NE10      30.21R WCI  26
OSHKOSH        CLOUDY    35  33  92 NE14      30.16R FOG     WCI  26
6HR MIN TEMP:  34; 6HR MAX TEMP:  35; 6HR PCP: TRACE;

$$

WIZ032>034-041-042-053>061-251300-
SOUTHWEST WISCONSIN

CITY           SKY/WX    TMP DP  RH WIND       PRES   REMARKS
LA CROSSE      CLOUDY    38  33  82 E10G18    30.12S HAZE    WCI  31
6HR MIN TEMP:  38; 6HR MAX TEMP:  41;

SPARTA         CLOUDY    35  33  92 E10G17    30.14F WCI  27
6HR MIN TEMP:  35; 6HR MAX TEMP:  37; 6HR PCP:  0.01;

VIROQUA        CLOUDY    34  34  99 NE18      30.08S WCI  23
6HR MIN TEMP:  34; 6HR MAX TEMP:  36;

BOSCOBEL       CLOUDY    38  34  85 NE10G20   30.09R WCI  31
6HR MIN TEMP:  38; 6HR MAX TEMP:  39; 6HR PCP: TRACE;

PRAIRIE DU CHI CLOUDY    36  35  96 NE12G18   30.06S WCI  28
6HR MIN TEMP:  36; 6HR MAX TEMP:  38; 6HR PCP:  0.03;

PLATTEVILLE    CLOUDY    37  37 100 NE18G24   30.03R WCI  27
6HR MIN TEMP:  37; 6HR MAX TEMP:  38;

$$

WIZ056-057-062-063-064-067-068-251300-
SOUTH CENTRAL WISCONSIN

CITY           SKY/WX    TMP DP  RH WIND       PRES   REMARKS
REEDSBURG      CLOUDY    34  34 100 NE14      30.12S FOG     WCI  25
6HR MIN TEMP:  34; 6HR MAX TEMP:  36; 6HR PCP:  0.02;

BARABOO/DELLS  CLOUDY    34  33  96 NE14G24   30.12R FOG     WCI  24
6HR MIN TEMP:  34; 6HR MAX TEMP:  35;

LONE ROCK      CLOUDY    37  33  85 NE12      30.10S FOG     WCI  29
6HR MIN TEMP:  37; 6HR MAX TEMP:  38; 6HR PCP: TRACE;

MINERAL POINT  CLOUDY    36  36 100 NE22G28   30.03F WCI  24
MADISON        CLOUDY    36  34  92 NE14      30.10R WCI  27
6HR MIN TEMP:  36; 6HR MAX TEMP:  37; 6HR PCP:  0.01;

MIDDLETON      CLOUDY    37  35  94 NE14      30.10S WCI  28
6HR MIN TEMP:  37; 6HR MAX TEMP:  38;

WATERTOWN      CLOUDY    36  36 100 NE13G18   30.10S WCI  28
6HR MIN TEMP:  36; 6HR MAX TEMP:  37; 6HR PCP:  0.06;

MONROE         CLOUDY    36  36 100 NE20G26   30.04R WCI  25
JANESVILLE     CLOUDY    39  39 100 NE17G23   30.07R WCI  30
$$

WIZ051-052-058>065-066-070>072-251300-
SOUTHEAST WISCONSIN

CITY           SKY/WX    TMP DP  RH WIND       PRES   REMARKS
MILWAUKEE      CLOUDY    38  36  92 NE15      30.12R WCI  29
6HR MIN TEMP:  37; 6HR MAX TEMP:  38; 6HR PCP:  0.04;

WAUKESHA       CLOUDY    36  34  93 NE13G21   30.11S WCI  27
MILWAUKEE/TIMM CLOUDY    36  34  93 NE13G22   30.12S WCI  27
RACINE         CLOUDY    38  36  92 NE16      30.12R WCI  29
6HR MIN TEMP:  37; 6HR MAX TEMP:  38; 6HR PCP:  0.01;

KENOSHA        CLOUDY    39  37  92 NE10      30.09R WCI  32
6HR MIN TEMP:  37; 6HR MAX TEMP:  39; 6HR PCP:  0.05;

FOND DU LAC    CLOUDY    36  33  89 NE13      30.16R WCI  27
6HR MIN TEMP:  36; 6HR MAX TEMP:  37; 6HR PCP: TRACE;

SHEBOYGAN      CLOUDY    36  34  92 NE21      30.17R FOG     WCI  25
6HR MIN TEMP:  36; 6HR MAX TEMP:  36; 6HR PCP: TRACE;

WEST BEND      CLOUDY    36  36 100 NE13G21   30.14R WCI  27
JUNEAU         CLOUDY    35  34  95 NE10G17   30.13R WCI  27
6HR MIN TEMP:  35; 6HR MAX TEMP:  36;

$$

LSZ147-162-251300-
LAKE SUPERIOR

STATION/POSITION TIME  TEMP    WIND        PRES    WAVE
                       AIR SEA DIR/SP/G            HT/PER
                 (UTC) (F)     (DEG/KT/KT) (MB)    (FT/S)
DEVILS ISLAND    1200   34      70/ 18/ 21 1027.3R
PORT WING        1140   34      60/  7/ 12 1025.4S
SAXON HARBOR     1130   33      50/  8/  9 1025.1S
$$

LMZ867-665-643>646-251300-
LAKE MICHIGAN

STATION/POSITION TIME  TEMP    WIND        PRES    WAVE
                       AIR SEA DIR/SP/G            HT/PER
                 (UTC) (F)     (DEG/KT/KT) (MB)    (FT/S)
CHAMBERS ISLAND  1140   33      20/ 11/ 14



USA.gov is the U.S. government's official web portal to all federal, state and local government web resources and services.